Hourly Weather Bolshie Verezi

Today, 18 June, Friday

Time Temperature Precipitation Wind Pressure Humidity
00:00 +13°C° 0 mm 4 mps 757 mmHg 66%
01:00 +12°C° 0 mm 4 mps 757 mmHg 71%
02:00 +11°C° 0 mm 4 mps 758 mmHg 76%
03:00 +10°C° 0 mm 4 mps 758 mmHg 80%
04:00 +11°C° 0 mm 4 mps 759 mmHg 78%
05:00 +11°C° 0 mm 4 mps 759 mmHg 76%
06:00 +12°C° 0 mm 4 mps 759 mmHg 74%
07:00 +13°C° 0 mm 5 mps 760 mmHg 69%
08:00 +15°C° 0 mm 5 mps 760 mmHg 63%
09:00 +16°C° 0 mm 5 mps 760 mmHg 57%
10:00 +16°C° 0 mm 5 mps 760 mmHg 55%
11:00 +17°C° 0 mm 5 mps 760 mmHg 52%
12:00 +19°C° 0 mm 5 mps 760 mmHg 49%
13:00 +20°C° 0 mm 5 mps 760 mmHg 48%
14:00 +20°C° 0 mm 4 mps 760 mmHg 47%
15:00 +20°C° 0 mm 4 mps 760 mmHg 46%
16:00 +20°C° 0 mm 3 mps 760 mmHg 52%
17:00 +19°C° 0 mm 3 mps 760 mmHg 58%
18:00 +19°C° 0 mm 2 mps 760 mmHg 63%
19:00 +18°C° 0 mm 2 mps 760 mmHg 65%
20:00 +16°C° 0 mm 1 mps 760 mmHg 66%
21:00 +15°C° 0 mm 1 mps 760 mmHg 68%
22:00 +14°C° 0 mm 2 mps 760 mmHg 68%
23:00 +14°C° 0 mm 2 mps 760 mmHg 68%

Tomorrow, 19 June, Saturday

Time Temperature Precipitation Wind Pressure Humidity
00:00 +14°C° 0 mm 2 mps 761 mmHg 68%
01:00 +12°C° 0 mm 3 mps 760 mmHg 69%
02:00 +12°C° 0 mm 3 mps 760 mmHg 70%
03:00 +12°C° 0 mm 3 mps 760 mmHg 71%
04:00 +13°C° 0 mm 4 mps 760 mmHg 73%
05:00 +14°C° 0 mm 4 mps 760 mmHg 74%
06:00 +15°C° 0 mm 5 mps 760 mmHg 76%
07:00 +17°C° 0 mm 5 mps 760 mmHg 72%
08:00 +20°C° 0 mm 6 mps 759 mmHg 69%
09:00 +21°C° 0 mm 7 mps 759 mmHg 65%
10:00 +23°C° 0 mm 7 mps 759 mmHg 63%
11:00 +24°C° 0 mm 7 mps 758 mmHg 60%
12:00 +26°C° 0 mm 7 mps 758 mmHg 58%
13:00 +27°C° 0 mm 7 mps 757 mmHg 58%
14:00 +27°C° 0 mm 7 mps 757 mmHg 59%
15:00 +28°C° 0 mm 7 mps 756 mmHg 59%
16:00 +27°C° 0 mm 6 mps 756 mmHg 63%
17:00 +26°C° 0 mm 6 mps 756 mmHg 66%
18:00 +26°C° 0 mm 6 mps 756 mmHg 69%
19:00 +23°C° 0 mm 6 mps 756 mmHg 74%
20:00 +22°C° 0 mm 5 mps 756 mmHg 78%
21:00 +21°C° 0 mm 5 mps 756 mmHg 82%
22:00 +20°C° 0 mm 5 mps 756 mmHg 84%
23:00 +20°C° 0 mm 5 mps 756 mmHg 85%

Day after tomorrow, 20 June, Sunday

Time Temperature Precipitation Wind Pressure Humidity
00:00 +19°C° 0 mm 5 mps 756 mmHg 86%
01:00 +19°C° 0 mm 5 mps 756 mmHg 88%
02:00 +18°C° 0 mm 4 mps 756 mmHg 91%
03:00 +18°C° 0 mm 4 mps 756 mmHg 93%
04:00 +19°C° 0 mm 4 mps 756 mmHg 89%
05:00 +20°C° 0 mm 4 mps 756 mmHg 86%
06:00 +21°C° 0 mm 4 mps 756 mmHg 82%
07:00 +23°C° 0 mm 4 mps 757 mmHg 76%
08:00 +25°C° 0 mm 4 mps 757 mmHg 70%
09:00 +27°C° 0 mm 4 mps 757 mmHg 64%
10:00 +28°C° 0 mm 4 mps 757 mmHg 60%
11:00 +29°C° 0 mm 4 mps 757 mmHg 57%
12:00 +30°C° 0 mm 4 mps 757 mmHg 54%
13:00 +30°C° 0 mm 4 mps 757 mmHg 53%
14:00 +30°C° 0 mm 5 mps 757 mmHg 52%
15:00 +30°C° 0 mm 5 mps 757 mmHg 52%
16:00 +29°C° 0 mm 4 mps 757 mmHg 57%
17:00 +28°C° 0 mm 4 mps 757 mmHg 63%
18:00 +27°C° 0 mm 3 mps 757 mmHg 69%
19:00 +25°C° 0 mm 3 mps 757 mmHg 71%
20:00 +22°C° 0 mm 3 mps 758 mmHg 73%
21:00 +20°C° 0 mm 3 mps 758 mmHg 75%
22:00 +19°C° 0 mm 2 mps 758 mmHg 72%
23:00 +18°C° 0 mm 2 mps 758 mmHg 69%

21 June, Monday

Time Temperature Precipitation Wind Pressure Humidity
00:00 +18°C° 0 mm 2 mps 758 mmHg 66%
01:00 +17°C° 0 mm 2 mps 758 mmHg 65%
02:00 +17°C° 0 mm 2 mps 758 mmHg 64%
03:00 +17°C° 0 mm 2 mps 758 mmHg 64%
04:00 +18°C° 0 mm 2 mps 758 mmHg 66%
05:00 +18°C° 0 mm 2 mps 758 mmHg 69%
06:00 +19°C° 0 mm 2 mps 758 mmHg 72%
07:00 +20°C° 0.1 mm 2 mps 758 mmHg 72%
08:00 +21°C° 0.1 mm 3 mps 758 mmHg 72%
09:00 +24°C° 0.1 mm 3 mps 758 mmHg 72%
10:00 +25°C° 0.2 mm 3 mps 758 mmHg 67%
11:00 +27°C° 0.2 mm 3 mps 758 mmHg 62%
12:00 +29°C° 0.2 mm 3 mps 757 mmHg 58%
13:00 +30°C° 0 mm 4 mps 757 mmHg 57%
14:00 +30°C° 0 mm 4 mps 757 mmHg 56%
15:00 +30°C° 0 mm 5 mps 757 mmHg 55%
16:00 +29°C° 0.1 mm 5 mps 756 mmHg 60%
17:00 +29°C° 0.1 mm 4 mps 756 mmHg 64%
18:00 +28°C° 0.1 mm 4 mps 756 mmHg 68%
19:00 +26°C° 0 mm 4 mps 756 mmHg 73%
20:00 +23°C° 0 mm 4 mps 756 mmHg 78%
21:00 +22°C° 0 mm 3 mps 756 mmHg 83%
22:00 +21°C° 0 mm 3 mps 756 mmHg 85%
23:00 +21°C° 0 mm 3 mps 756 mmHg 87%

22 June, Tuesday

Time Temperature Precipitation Wind Pressure Humidity
00:00 +20°C° 0 mm 3 mps 756 mmHg 88%
01:00 +20°C° 0 mm 3 mps 756 mmHg 89%
02:00 +19°C° 0 mm 3 mps 756 mmHg 91%
03:00 +19°C° 0 mm 3 mps 756 mmHg 92%
04:00 +20°C° 0 mm 3 mps 756 mmHg 87%
05:00 +21°C° 0 mm 3 mps 756 mmHg 82%
06:00 +22°C° 0 mm 3 mps 756 mmHg 77%
07:00 +25°C° 0 mm 4 mps 756 mmHg 72%
08:00 +27°C° 0 mm 4 mps 756 mmHg 67%
09:00 +28°C° 0 mm 4 mps 756 mmHg 62%
10:00 +29°C° 0 mm 4 mps 756 mmHg 58%
11:00 +30°C° 0 mm 4 mps 756 mmHg 55%
12:00 +33°C° 0 mm 5 mps 755 mmHg 51%
13:00 +33°C° 0 mm 4 mps 755 mmHg 50%
14:00 +33°C° 0 mm 4 mps 755 mmHg 49%
15:00 +34°C° 0 mm 4 mps 755 mmHg 48%
16:00 +31°C° 0 mm 3 mps 755 mmHg 54%
17:00 +30°C° 0 mm 3 mps 755 mmHg 61%
18:00 +29°C° 0 mm 3 mps 755 mmHg 68%
19:00 +28°C° 0 mm 2 mps 755 mmHg 72%
20:00 +26°C° 0 mm 2 mps 755 mmHg 76%
21:00 +24°C° 0 mm 2 mps 755 mmHg 81%
22:00 +24°C° 0.1 mm 2 mps 755 mmHg 81%
23:00 +23°C° 0.1 mm 2 mps 756 mmHg 81%

23 June, Wednesday

Time Temperature Precipitation Wind Pressure Humidity
00:00 +23°C° 0.1 mm 1 mps 756 mmHg 82%
01:00 +21°C° 0 mm 2 mps 756 mmHg 82%
02:00 +20°C° 0 mm 2 mps 756 mmHg 81%
03:00 +20°C° 0 mm 2 mps 756 mmHg 81%
04:00 +20°C° 0 mm 2 mps 756 mmHg 80%
05:00 +21°C° 0 mm 2 mps 757 mmHg 79%
06:00 +23°C° 0 mm 2 mps 757 mmHg 77%
07:00 +24°C° 0 mm 2 mps 757 mmHg 73%
08:00 +25°C° 0 mm 2 mps 757 mmHg 69%
09:00 +26°C° 0 mm 2 mps 757 mmHg 65%
10:00 +27°C° 0 mm 2 mps 757 mmHg 61%
11:00 +28°C° 0 mm 2 mps 757 mmHg 58%
12:00 +29°C° 0 mm 2 mps 757 mmHg 55%
13:00 +29°C° 0 mm 2 mps 757 mmHg 53%
14:00 +29°C° 0 mm 2 mps 757 mmHg 52%
15:00 +30°C° 0 mm 2 mps 756 mmHg 50%
16:00 +29°C° 0 mm 2 mps 756 mmHg 54%
17:00 +29°C° 0 mm 1 mps 756 mmHg 59%
18:00 +28°C° 0 mm 1 mps 756 mmHg 63%
19:00 +26°C° 0 mm 1 mps 756 mmHg 67%
20:00 +24°C° 0 mm 1 mps 756 mmHg 70%
21:00 +23°C° 0 mm 2 mps 756 mmHg 74%
22:00 +22°C° 0 mm 1 mps 756 mmHg 76%
23:00 +21°C° 0 mm 1 mps 756 mmHg 77%
Show more